sat.trackr.live / text

‹ back to catalog

STARLINK-30133

NORAD 56837 · 2023-079Q

PAYLOAD ACTIVE UNKNOWN

§ Identity

Operator
Country
US
Launch date
2023-06-04
Launch site
AFETR
Launch vehicle
Mass (kg)
RCS (m²)

Purposes: comms

External: N2YO · Heavens-Above · Gunter

§ Orbital elements

Epoch: 2026-09-20T14:41:05.091072Z

Period
94.27 min
Inclination
43.0064°
Eccentricity
0.0001403
Mean motion
15.27582132 rev/d
Perigee alt
482.1 km
Apogee alt
484.0 km
Semi-major
6,861.2 km
B*
5.9209e-5
RAAN
85.8322°
Arg perigee
270.8396°
Mean anomaly
89.2295°
Rev number
18,270

§ Raw data

STARLINK-301331 56837U 23079Q   26263.61186448  .00001367  00000+0  59209-4 0  99922 56837  43.0064  85.8322 0001403 270.8396  89.2295 15.27582132182708

JSON: /api/v1/satellites/56837 · /tle

For live sub-satellite position, see the globe view (requires WebGL).

§ Visibility from observer

Set your observer location to see the next 7 days of passes ≥ 10°. The values pass through the URL so the page stays shareable.

No JS? Fill the form by hand. The geolocation button needs JavaScript.